| time (UTC) | temp C | wind direction | speed KPH | gust KPH | rain 1hr cm | rain 24hr cm | rain mn cm | humidity % | barometer mb |
| 20260504081459 | 10 | 168 | 0.0 | 3.2 | 0.00 | 0.00 | 0.00 | 70 | 1016.4 |
| 20260504050001 | 7 | 191 | 0.0 | 0.0 | 0.00 | 0.00 | 0.00 | 73 | 1016.5 |
| 20260504044500 | 7 | 191 | 0.0 | 0.0 | 0.00 | 0.00 | 0.00 | 72 | 1016.4 |
| 20260504043000 | 7 | 191 | 0.0 | 0.0 | 0.00 | 0.00 | 0.00 | 72 | 1016.5 |
| 20260504041459 | 7 | 191 | 0.0 | 0.0 | 0.00 | 0.00 | 0.00 | 71 | 1016.6 |
| 20260504040003 | 7 | 191 | 0.0 | 0.0 | 0.00 | 0.00 | 0.00 | 69 | 1016.7 |
| 20260504034459 | 7 | 191 | 0.0 | 0.0 | 0.00 | 0.00 | 0.00 | 68 | 1016.6 |
| 20260504033000 | 7 | 191 | 0.0 | 0.0 | 0.00 | 0.00 | 0.00 | 67 | 1016.5 |
| 20260504031459 | 8 | 191 | 0.0 | 0.0 | 0.00 | 0.00 | 0.00 | 67 | 1016.4 |
| 20260504030002 | 8 | 191 | 0.0 | 0.0 | 0.00 | 0.00 | 0.00 | 67 | 1016.4 |
| 20260504024459 | 8 | 191 | 0.0 | 0.0 | 0.00 | 0.00 | 0.00 | 65 | 1016.3 |
| 20260504022959 | 8 | 191 | 0.0 | 0.0 | 0.00 | 0.00 | 0.00 | 65 | 1016.3 |
| 20260504021459 | 8 | 191 | 0.0 | 0.0 | 0.00 | 0.00 | 0.00 | 63 | 1016.1 |
| 20260504015959 | 8 | 191 | 0.0 | 1.6 | 0.00 | 0.00 | 0.00 | 63 | 1016.2 |
| 20260504014459 | 9 | 229 | 0.0 | 1.6 | 0.00 | 0.00 | 0.00 | 61 | 1016.1 |
| 20260504012958 | 10 | 228 | 0.0 | 1.6 | 0.00 | 0.00 | 0.00 | 57 | 1016.0 |
| 20260504011459 | 10 | 228 | 0.0 | 1.6 | 0.00 | 0.00 | 0.00 | 57 | 1015.8 |
| 20260504010001 | 10 | 229 | 0.0 | 0.0 | 0.00 | 0.00 | 0.00 | 55 | 1015.8 |
| 20260504004501 | 11 | 229 | 0.0 | 1.6 | 0.00 | 0.00 | 0.00 | 52 | 1015.8 |
| 20260504003000 | 11 | 229 | 0.0 | 0.0 | 0.00 | 0.00 | 0.00 | 49 | 1015.5 |
| 20260504001500 | 12 | 229 | 0.0 | 1.6 | 0.00 | 0.00 | 0.00 | 46 | 1015.4 |
| 20260504000001 | 13 | 228 | 0.0 | 1.6 | 0.00 | 0.00 | 0.00 | 44 | 1015.3 |
| 20260503234500 | 13 | 219 | 0.0 | 1.6 | 0.00 | 0.00 | 0.00 | 46 | 1015.3 |
| 20260503233000 | 14 | 243 | 0.0 | 3.2 | 0.00 | 0.00 | 0.00 | 36 | 1015.0 |
| 20260503231459 | 15 | 210 | 0.0 | 1.6 | 0.00 | 0.00 | 0.00 | 37 | 1015.1 |
| 20260503230001 | 15 | 115 | 1.6 | 12.9 | 0.00 | 0.00 | 0.00 | 35 | 1014.9 |
| 20260503224459 | 15 | 80 | 1.6 | 9.7 | 0.00 | 0.00 | 0.00 | 35 | 1015.0 |
| 20260503222959 | 16 | 146 | 1.6 | 6.4 | 0.00 | 0.00 | 0.00 | 38 | 1015.0 |
| 20260503221459 | 16 | 214 | 1.6 | 4.8 | 0.00 | 0.00 | 0.00 | 34 | 1015.1 |
| 20260503220002 | 17 | 293 | 1.6 | 6.4 | 0.00 | 0.00 | 0.00 | 32 | 1015.1 |
| 20260503214458 | 17 | 170 | 3.2 | 12.9 | 0.00 | 0.00 | 0.00 | 31 | 1015.1 |
| 20260503212958 | 17 | 25 | 3.2 | 9.7 | 0.00 | 0.00 | 0.00 | 33 | 1015.1 |
| 20260503211459 | 17 | 62 | 3.2 | 11.3 | 0.00 | 0.00 | 0.00 | 34 | 1015.3 |
| 20260503210001 | 17 | 53 | 3.2 | 8.0 | 0.00 | 0.00 | 0.00 | 33 | 1015.2 |
| 20260503204458 | 17 | 1 | 4.8 | 12.9 | 0.00 | 0.00 | 0.00 | 35 | 1015.1 |
| 20260503202959 | 17 | 172 | 3.2 | 14.5 | 0.00 | 0.00 | 0.00 | 32 | 1015.2 |
| 20260503201459 | 17 | 310 | 3.2 | 11.3 | 0.00 | 0.00 | 0.00 | 36 | 1015.5 |
| 20260503195959 | 17 | 208 | 3.2 | 8.0 | 0.00 | 0.00 | 0.00 | 33 | 1015.8 |
| 20260503194459 | 17 | 309 | 3.2 | 19.3 | 0.00 | 0.00 | 0.00 | 34 | 1015.9 |
| 20260503192959 | 17 | 220 | 3.2 | 11.3 | 0.00 | 0.00 | 0.00 | 38 | 1016.1 |
| 20260503191458 | 16 | 300 | 3.2 | 11.3 | 0.00 | 0.00 | 0.00 | 37 | 1016.2 |
| 20260503185959 | 16 | 309 | 3.2 | 11.3 | 0.00 | 0.00 | 0.00 | 37 | 1016.4 |
| 20260503184459 | 16 | 256 | 4.8 | 11.3 | 0.00 | 0.00 | 0.00 | 34 | 1016.5 |
| 20260503182959 | 16 | 319 | 3.2 | 12.9 | 0.00 | 0.00 | 0.00 | 37 | 1016.6 |
| 20260503181458 | 16 | 238 | 3.2 | 11.3 | 0.00 | 0.00 | 0.00 | 35 | 1016.8 |
| 20260503175959 | 15 | 295 | 3.2 | 14.5 | 0.00 | 0.00 | 0.00 | 35 | 1016.8 |
| 20260503174459 | 15 | 117 | 3.2 | 11.3 | 0.00 | 0.00 | 0.00 | 37 | 1016.9 |
| 20260503172958 | 15 | 332 | 3.2 | 9.7 | 0.00 | 0.00 | 0.00 | 36 | 1016.9 |
| 20260503171459 | 15 | 36 | 3.2 | 16.1 | 0.00 | 0.00 | 0.00 | 38 | 1017.0 |